Lid_Strength_Index
1 1 1 2 2 1 2 2 1 1 2 2 1 2 2 3 3 3 3 3 3 3
1 1 1 1 1 1 2 2 1 1 2 2 2 3 5 5 5 4 3 4 3 3
1 1 1 1 1 2 2 1 2 3 3 4 5 6 6 6 5 5 4 3 4 4
1 1 1 1 2 2 1 2 3 4 6 7 8 7 6 5 5 4 4 4 4 4
1 1 1 2 2 2 2 3 4 7 8 8 8 7 6 6 6 5 4 4 4 5
2 2 2 2 1 1 3 5 7 8 9 9 8 7 7 7 7 5 5 4 5 5
2 2 2 1 2 4 5 7 9 8 10 9 7 7 8 7 7 5 4 4 5 6
1 1 1 2 5 6 7 8 10 10 9 7 7 6 7 8 7 6 6 5 5 6
2 2 3 4 6 7 9 9 9 10 8 8 6 5 4 7 7 7 7 7 7 7
2 4 5 6 7 8 9 9 10 8 9 9 8 6 5 5 7 8 8 9 9 8
3 5 6 7 7 9 9 10 8 8 9 9 8 6 6 6 8 9 8 9 9 10
4 6 7 7 7 8 9 7 8 8 9 10 10 7 7 8 9 9 9 9 9 8
5 6 7 8 8 9 6 6 6 7 9 9 10 8 8 9 10 11 10 10 10 7
6 6 7 8 9 8 6 5 7 7 10 10 11 10 9 8 11 11 11 11 11 10